Weather observations for the past three days for
Abilene, Abilene Regional Airport
Imperial (Metric)
Date Time (cdt) Wind (mph) Vis. (mi.) Weather Sky Cond. Temperature (ºF) Relative Humidity Wind Chill (°F) Heat Index (°F) Pressure Precipitation (in)
Air Dwpt 6 hour altimeter (in) sea level (mb) 1 hr 3 hr 6 hr
Max. Min.
15 21:52 SE 15 10.00 Fair CLR 82.9 64.9 55% 85 29.84 1007.6
15 20:52 E 9 10.00 Fair CLR 84.9 64.9 51% 87 29.84 1007.7
15 19:52 SE 13 10.00 Fair CLR 88 64.9 46% 90 29.84 1007.6
15 18:52 SE 18 10.00 Fair CLR 90 64.9 91.9 87.1 44% 92 29.84 1007.7
15 17:52 SE 16 10.00 Fair CLR 91 64.9 42% 93 29.84 1007.7
15 16:52 SE 12 G 21 10.00 Fair CLR 91 64.9 42% 93 29.87 1008.5
15 15:52 SE 14 G 24 10.00 Fair CLR 91 66 44% 94 29.89 1009.1
15 14:52 S 12 G 21 10.00 A Few Clouds FEW050 90 68 48% 94 29.91 1009.8
15 13:52 S 14 10.00 A Few Clouds FEW048 90 66.9 47% 93 29.93 1010.5
15 12:52 S 13 10.00 Fair CLR 87.1 69.1 88 70 55% 91 29.94 1011.0
15 10:52 S 13 G 22 10.00 Fair CLR 82 68 63% 85 29.97 1012.1
15 09:52 SW 18 G 23 10.00 Fair CLR 82 68 63% 85 29.99 1012.7
15 08:52 S 8 7.00 Fair CLR 77 69.1 77% 79 30 1013.1
15 07:52 SE 9 9.00 Fair CLR 73.9 68 82% 30 1013.1
15 06:52 E 7 9.00 Fair CLR 70 66 73.9 70 87% 30 1013.2
15 05:52 E 5 10.00 Fair CLR 72 66 82% 30 1013.2
15 04:52 SE 6 10.00 Fair CLR 72 66 82% 29.98 1012.4
15 03:52 SE 5 10.00 Fair CLR 71.1 66 84% 29.97 1011.9
15 02:52 SE 6 10.00 Fair CLR 72 66 82% 29.97 1012.0
15 01:52 SE 7 10.00 Fair CLR 72 66 82% 29.97 1012.2
15 00:52 SE 7 10.00 Fair CLR 73.9 66 91 73.9 76% 29.98 1012.5
14 23:52 SE 7 10.00 Fair CLR 75.9 66 72% 77 29.99 1012.7
14 22:52 SE 8 10.00 Fair CLR 78.1 66 67% 80 29.99 1012.7
14 21:52 E 7 10.00 Fair CLR 80.1 64 58% 82 29.97 1011.9
14 20:52 SE 10 10.00 Fair CLR 84 63 49% 85 29.95 1011.4
14 19:52 SE 10 10.00 Fair CLR 89.1 63 42% 90 29.95 1011.2
14 18:52 SE 9 10.00 Fair CLR 91 63 93 89.1 39% 92 29.94 1010.9
14 17:52 S 13 10.00 Fair CLR 91.9 64 40% 94 29.94 1011.0
14 16:52 S 14 G 20 10.00 Fair CLR 91.9 63 38% 93 29.96 1011.6
14 15:52 SE 12 10.00 Fair CLR 91.9 66 43% 95 29.99 1012.6
14 14:52 SE 12 10.00 Fair CLR 93 66.9 42% 97 30.01 1013.3
14 13:52 SE 14 G 21 10.00 A Few Clouds FEW050 91 66.9 45% 94 30.02 1013.8
14 12:52 SE 12 10.00 Partly Cloudy SCT047 89.1 66.9 90 73.9 48% 92 30.04 1014.3
14 11:52 Vrbl 7 10.00 A Few Clouds FEW035 89.1 69.1 52% 94 30.04 1014.3
14 10:52 S 9 10.00 A Few Clouds FEW025 FEW030 84.9 73 68% 92 30.04 1014.3
14 09:52 S 12 10.00 Fair CLR 84 72 67% 90 30.04 1014.4
14 08:52 S 10 10.00 Fair CLR 79 72 79% 82 30.03 1014.1
14 07:52 SE 9 9.00 Fair CLR 75.9 71.1 85% 76 30.02 1013.8
14 06:52 S 8 9.00 Fair CLR 73.9 70 75.9 72 88% 30 1013.1
14 05:52 SE 7 10.00 Fair CLR 72 69.1 91% 30 1013.0
14 04:52 S 6 10.00 Fair CLR 72 69.1 91% 29.99 1012.8
14 03:52 E 7 10.00 Fair CLR 75 69.1 82% 75 30 1013.0
14 02:52 SE 8 10.00 Fair CLR 75 69.1 82% 75 29.99 1012.5
14 01:52 SE 8 10.00 Fair CLR 75 70 84% 75 29.98 1012.2
14 00:52 SE 7 10.00 Fair CLR 75.9 70 91 75.9 82% 77 29.99 1012.6
13 23:52 SE 7 10.00 Fair CLR 75.9 70 82% 77 29.98 1012.3
13 22:52 SE 6 10.00 Fair CLR 78.1 70 76% 80 29.97 1012.0
13 21:52 SE 8 10.00 Fair CLR 80.1 70 71% 83 29.95 1011.3
13 20:52 SE 8 10.00 Fair CLR 84 69.1 61% 88 29.94 1010.9
13 19:52 SE 13 10.00 Fair CLR 88 70 55% 93 29.94 1011.0
13 18:52 SE 9 10.00 Fair CLR 91 68 93.9 88 47% 95 29.93 1010.8
13 17:52 SE 10 10.00 Fair CLR 93 69.1 46% 98 29.94 1011.0
13 16:52 SE 9 G 17 10.00 Fair CLR 93 68 44% 97 29.95 1011.4
13 15:52 E 8 10.00 Fair CLR 93 68 44% 97 29.97 1012.0
13 14:52 S 8 10.00 Fair CLR 91.9 66.9 44% 95 29.98 1012.4
13 13:52 SE 5 10.00 A Few Clouds FEW048 93 71.1 49% 100 30 1013.0
13 12:52 SW 7 10.00 Mostly Cloudy SCT040 BKN050 90 70 90 72 52% 95 30.01 1013.5
13 11:52 SW 7 10.00 Fair CLR 88 71.1 57% 94 30.02 1013.7
13 10:52 S 8 10.00 Fair CLR 84.9 72 65% 91 30.02 1013.7
13 09:52 S 14 10.00 A Few Clouds FEW016 81 73 77% 86 30.02 1014.0
13 08:52 S 8 10.00 Fair CLR 80.1 73 79% 84 30.01 1013.5
13 07:52 SE 7 10.00 Fair CLR 75 71.1 88% 75 30 1013.1
13 06:52 S 6 10.00 Fair CLR 72 70 75 71.1 94% 29.99 1012.6
13 05:52 SE 7 10.00 Fair CLR 71.1 69.1 94% 29.96 1011.9
13 04:52 SE 8 10.00 Fair CLR 72 69.1 91% 29.96 1011.8
13 03:52 SE 7 10.00 Fair CLR 73 69.1 87% 29.96 1011.6
13 02:52 S 8 10.00 Fair CLR 73.9 70 88% 29.95 1011.4
13 01:52 SE 9 10.00 Fair CLR 75 70 84% 75 29.96 1011.8
13 00:52 SE 12 10.00 Fair CLR 75 69.1 88 73.9 82% 75 29.97 1012.2
12 23:52 SE 9 10.00 Fair CLR 75 69.1 82% 75 29.98 1012.4
12 22:52 SE 9 10.00 Fair CLR 77 70 79% 79 29.97 1012.3
Date Time (cdt) Wind (mph) Vis. (mi.) Weather Sky Cond. Air Dwpt Max. Min. Relative Humidity Wind Chill (°F) Heat Index (°F) altimeter (in) sea level (mb) 1 hr 3 hr 6 hr
6 hour
Temperature (ºF) Pressure Precipitation (in)